Cozumel Airport, Mexico

5:02 AM EST on August 27, 2016 (GMT -0500)
Cozumel International

Weather History for MMCZ - October, 2012

Change the Weather History Date:

Wednesday, October 3, 2012

  Actual Average Record
Temperature  
Mean Temperature 73 °F -  
Max Temperature 77 °F 87 °F 93 °F (1998)
Min Temperature 69 °F 75 °F 69 °F (2011)
Cooling Degree Days 8    
Growing Degree Days 23 (Base 50)    
Moisture  
Dew Point 71 °F    
Average Humidity 94    
Maximum Humidity 100    
Minimum Humidity 73    
Precipitation  
Precipitation 2.85 in - - ()
Sea Level Pressure  
Sea Level Pressure 30.00 in    
Wind  
Wind Speed 2 mph ()    
Max Wind Speed 12 mph    
Max Gust Speed 16 mph    
Visibility 5.3 miles    
Events Rain , Thunderstorm    
Averages and records for this station are not official NWS values.
T = Trace of Precipitation, MM = Missing Value Source: Averaged Metar Reports

Daily Weather History Graph

Daily Weather History Graph

Search for Another Location

Airport or City:

Trip Planner

Search our weather history database for the weather conditions in past years. The results will help you decide how hot, cold, wet, or windy it might be!

Date:

Astronomy

Oct. 03, 2012 Rise Set
Actual Time 6:39 AM CDT 6:33 PM CDT
Civil Twilight 6:17 AM CDT 6:55 PM CDT
Nautical Twilight 5:51 AM CDT 7:21 PM CDT
Astronomical Twilight 5:25 AM CDT 7:46 PM CDT
Moon 8:56 PM CDT (10/3) 9:32 AM CDT (10/3)
Length of Visible Light 12h 38m
Length of Day
11h 54m
Waning Gibbous, 88% of the Moon is Illuminated
Oct 3
Waning Gibbous
Oct 8
Last Quarter
Oct 15
New
Oct 21
First Quarter
Oct 29
Full

Hourly Weather History & Observations

Time (CDT) Temp. Dew Point Humidity Pressure Visibility Wind Dir Wind Speed Gust Speed Precip Events Conditions
12:40 AM 71.6 °F 64.4 °F 78% 29.95 in 7.0 mi East 3.5 mph - N/A   Mostly Cloudy
1:42 AM 73.4 °F 64.4 °F 73% 29.94 in 7.0 mi Calm Calm - N/A   Mostly Cloudy
2:40 AM 71.6 °F 66.2 °F 83% 29.93 in 7.0 mi Calm Calm - N/A   Mostly Cloudy
3:44 AM 71.6 °F 64.4 °F 78% 29.96 in 6.0 mi Calm Calm - N/A Thunderstorm Thunderstorm
4:14 AM 69.8 °F 69.8 °F 100% 29.95 in 2.0 mi Calm Calm - N/A Rain , Thunderstorm Heavy Thunderstorms and Rain
4:40 AM 69.8 °F 69.8 °F 100% 29.97 in 2.5 mi West 11.5 mph - N/A Rain , Thunderstorm Heavy Thunderstorms and Rain
5:41 AM 69.8 °F 69.8 °F 100% 29.95 in 2.0 mi West 4.6 mph 16.1 mph N/A Rain , Thunderstorm Thunderstorms and Rain
6:44 AM 69.8 °F 69.8 °F 100% 29.97 in 3.0 mi Calm Calm - N/A Rain , Thunderstorm Thunderstorms and Rain
7:54 AM 69.8 °F 69.8 °F 100% 30.01 in 3.0 mi SE 3.5 mph - N/A Rain , Thunderstorm Thunderstorms and Rain
8:47 AM 69.8 °F 69.8 °F 100% 30.02 in 3.0 mi Calm Calm - N/A Rain , Thunderstorm Thunderstorms and Rain
9:51 AM 69.8 °F 69.8 °F 100% 30.08 in 4.0 mi Calm Calm - N/A Rain Rain
10:46 AM 71.6 °F 71.6 °F 100% 30.07 in 6.0 mi Calm Calm - N/A   Overcast
11:51 AM 73.4 °F 73.4 °F 100% 30.04 in 6.0 mi Calm Calm - N/A   Overcast
12:50 PM 75.2 °F 73.4 °F 94% 29.99 in 6.0 mi ESE 3.5 mph - N/A   Overcast
1:52 PM 73.4 °F 73.4 °F 100% 29.97 in 5.0 mi SSE 3.5 mph - N/A Rain Light Rain
2:43 PM 75.2 °F 75.2 °F 100% 30.00 in 5.0 mi Calm Calm - N/A Rain Light Rain
3:46 PM 77.0 °F 75.2 °F 94% 30.00 in 6.0 mi Calm Calm - N/A   Overcast
4:46 PM 77.0 °F 75.2 °F 94% 29.97 in 7.0 mi NE 3.5 mph - N/A   Mostly Cloudy
5:45 PM 77.0 °F 75.2 °F 94% 29.98 in 7.0 mi NE 3.5 mph - N/A   Mostly Cloudy
6:46 PM 75.2 °F 73.4 °F 94% 29.95 in 7.0 mi NNE 3.5 mph - N/A   Mostly Cloudy
7:46 PM 75.2 °F 73.4 °F 94% 30.00 in 7.0 mi NNE 3.5 mph - N/A   Mostly Cloudy
8:44 PM 75.2 °F 73.4 °F 94% 30.03 in 6.0 mi NE 3.5 mph - N/A   Mostly Cloudy
9:54 PM 75.2 °F 73.4 °F 94% 30.09 in 6.0 mi NNE 3.5 mph - N/A   Mostly Cloudy
10:45 PM 75.2 °F 73.4 °F 94% 30.07 in 6.0 mi Calm Calm - N/A   Mostly Cloudy
11:46 PM 75.2 °F 73.4 °F 94% 30.06 in 6.0 mi Calm Calm - N/A   Mostly Cloudy